Wind_Speed
10 10 9 7 5 4 4 3 3 3 3 3 4 4 5 6 6 7 6 5 5 6 6 7 7 7 8 8 8 9 11 10 10 10 10 10 11 11 11 12 12 13
10 9 7 6 5 4 4 4 3 3 2 3 4 4 4 3 4 7 7 3 4 5 5 6 6 7 8 8 7 8 9 10 10 11 12 12 12 12 12 11 11 12
9 8 7 7 6 5 5 5 5 4 3 3 4 5 5 2 5 7 7 2 3 4 4 5 6 6 8 8 7 8 8 8 9 9 10 11 12 13 12 11 12 12
7 7 7 7 6 7 7 7 7 6 5 5 5 5 5 2 3 7 7 3 4 4 5 4 5 6 7 7 7 7 8 8 8 8 9 10 11 12 13 12 11 13
6 7 7 7 7 7 7 8 8 7 6 7 6 6 5 3 3 4 4 3 6 6 6 5 6 7 7 7 6 6 7 8 9 9 9 11 11 11 12 12 11 13
7 7 8 8 7 8 8 9 9 8 7 7 7 7 6 6 7 6 2 3 5 7 7 6 7 7 8 7 6 6 7 7 8 9 10 11 11 10 10 11 11 12
8 8 9 9 9 9 10 10 10 9 8 7 7 8 7 8 10 9 4 4 4 5 7 8 8 8 7 6 6 8 9 9 8 8 9 11 12 12 10 10 10 11
8 9 9 10 10 10 11 11 11 10 9 8 8 8 8 9 10 8 5 3 3 4 6 8 8 8 8 7 9 11 11 10 9 8 8 10 12 13 12 11 10 10
9 10 10 11 12 12 12 12 12 11 9 9 8 8 9 9 9 8 6 5 5 3 7 10 7 6 8 9 9 11 12 12 11 9 8 8 10 12 13 13 12 12
10 10 11 11 13 13 14 14 13 11 10 9 8 8 9 9 10 10 7 6 6 4 8 12 7 4 9 9 7 9 11 13 13 12 10 8 10 11 12 13 14 13
8 9 10 11 12 13 14 13 11 11 10 9 8 9 10 10 11 11 7 6 8 8 10 13 9 5 7 7 7 7 9 12 13 13 12 11 11 11 11 12 13 13
8 9 8 9 10 10 11 10 10 10 9 8 8 9 10 10 9 10 8 8 11 9 8 10 10 8 7 6 5 4 6 9 11 14 15 13 12 12 11 12 13 13
8 7 6 7 7 8 9 9 8 8 7 7 8 9 10 9 9 10 10 11 11 9 9 11 10 11 11 7 3 2 5 7 9 12 15 15 14 12 11 12 13 13
7 5 4 5 6 6 7 7 7 7 7 8 9 9 9 9 9 11 12 12 12 10 11 12 9 9 12 10 6 5 7 8 8 10 12 14 15 13 12 13 12 13
6 5 4 5 5 5 6 7 7 7 7 7 7 8 8 9 10 11 12 13 14 13 12 11 10 10 12 12 10 9 8 8 9 9 9 13 15 13 13 13 13 13
7 6 5 5 6 6 6 7 7 7 7 7 7 8 9 10 10 11 12 13 14 14 11 9 9 11 13 14 14 12 11 10 10 10 9 11 14 14 14 14 14 14
8 7 7 7 8 7 7 8 8 9 9 9 9 10 10 11 11 11 13 13 12 15 15 11 10 12 13 15 15 13 12 11 10 10 9 11 13 15 16 16 14 13
8 9 9 9 9 10 10 11 11 11 11 12 12 13 13 13 12 12 13 13 12 15 16 14 14 15 16 17 15 13 11 10 9 10 10 11 13 15 17 17 15 14
10 10 9 9 10 11 11 11 11 11 11 11 11 12 12 13 13 13 14 13 13 16 17 16 16 15 15 15 14 12 11 10 10 10 10 11 13 15 16 17 15 13
9 9 9 10 11 10 9 10 10 11 12 11 11 11 10 12 13 13 14 14 15 16 17 16 16 16 15 13 12 12 12 11 11 11 11 12 14 15 18 20 19 15
10 11 10 11 13 12 11 11 12 12 13 13 12 12 12 13 14 14 15 16 17 18 18 16 16 17 16 15 14 14 14 14 13 13 13 13 14 15 18 22 21 15
11 11 11 13 14 14 13 14 15 15 16 16 16 16 16 16 16 16 16 16 16 17 17 16 16 17 17 17 17 16 16 15 14 14 13 13 14 15 17 20 20 16
14 14 16 17 17 16 16 16 16 16 16 17 18 18 18 19 20 20 19 18 18 17 16 16 16 17 17 17 17 16 16 16 15 13 13 15 15 16 17 18 19 19
14 14 14 13 13 14 14 14 13 13 14 15 16 18 18 19 19 18 16 17 18 18 18 19 19 19 18 17 16 16 16 16 15 13 14 16 16 16 17 16 17 19
12 13 14 13 12 13 14 14 14 14 15 16 16 16 16 16 16 17 18 20 20 21 23 23 22 20 19 18 17 17 17 17 16 14 15 16 16 16 16 16 16 18
16 18 18 16 14 13 13 15 16 16 17 17 16 16 16 17 17 18 20 21 21 21 22 24 24 22 20 19 19 18 18 17 17 16 16 16 16 15 15 16 15 15
Wind_Direction
246 239 240 239 228 228 234 235 250 269 277 268 286 334 15 33 11 344 346 6 350 330 331 333 336 340 338 342 348 345 343 346 345 342 341 342 344 345 342 346 350 345
246 237 233 236 226 230 239 229 238 259 259 252 267 300 323 7 23 338 324 3 4 326 325 327 326 331 331 332 334 333 337 341 341 341 341 343 341 336 335 341 343 339
243 241 234 235 229 232 239 231 232 238 240 243 250 273 295 346 31 345 316 349 23 319 310 314 311 319 322 322 324 322 325 329 329 333 336 336 333 330 331 334 335 334
247 249 246 245 237 233 234 232 229 225 230 232 234 269 298 326 8 331 307 344 9 300 266 286 299 300 305 307 313 318 320 319 318 319 318 317 321 325 327 329 332 332
254 253 251 249 243 241 237 233 229 223 229 230 231 262 283 272 286 291 280 357 358 310 268 259 263 268 282 291 297 306 311 312 312 314 310 308 312 318 322 326 327 329
256 252 251 247 242 246 244 239 234 226 227 229 228 242 256 271 276 264 260 12 353 327 311 293 276 271 269 270 280 294 302 304 307 311 310 311 314 317 319 320 320 322
254 252 250 249 246 247 246 243 240 233 228 226 226 232 242 270 280 278 303 340 325 317 318 314 314 308 292 287 304 307 300 291 289 298 306 310 315 317 315 314 315 319
259 258 255 253 252 250 247 243 242 239 231 223 225 230 233 250 277 298 317 303 275 293 307 302 305 310 310 314 311 305 301 296 290 289 297 306 311 311 312 313 314 316
258 257 257 257 255 253 250 245 242 240 232 224 224 231 234 238 262 290 296 283 276 292 298 289 284 302 311 307 306 310 314 314 309 299 294 302 307 308 312 315 315 314
252 253 255 257 256 254 251 245 239 235 232 226 223 230 236 235 248 260 269 288 289 283 284 279 272 300 308 306 315 323 319 317 317 315 309 307 305 305 308 311 312 312
260 259 257 257 258 256 252 245 239 238 234 227 223 233 238 236 249 265 277 279 271 272 285 288 288 281 279 289 307 320 322 321 321 320 315 305 296 293 294 298 302 306
279 270 264 264 263 261 257 251 246 242 230 221 225 235 240 234 244 268 278 269 269 273 280 297 314 306 281 270 279 306 322 320 320 319 315 307 296 290 291 293 296 299
284 276 269 270 270 265 262 256 248 240 227 229 235 235 240 238 237 251 257 259 271 282 282 294 317 320 307 293 246 238 282 299 318 318 311 310 307 300 297 294 293 298
280 280 275 273 271 264 258 254 252 248 238 238 239 233 237 242 244 255 260 258 259 260 264 274 286 298 299 291 270 263 276 291 318 319 306 306 308 302 297 293 293 300
261 259 255 259 260 256 254 251 252 253 247 243 242 240 243 246 250 258 265 270 272 263 249 249 260 272 278 278 279 281 274 281 310 320 307 301 303 302 299 297 296 296
245 237 237 247 247 247 250 251 249 247 246 246 250 255 254 250 251 255 260 271 281 282 276 266 264 266 266 270 278 279 270 276 303 316 303 295 303 304 297 292 291 290
249 233 232 236 234 234 238 241 242 239 236 237 243 251 257 258 259 262 264 265 264 272 282 284 276 271 271 275 278 274 270 278 297 310 301 289 294 296 294 294 295 295
260 251 244 236 229 230 231 233 235 235 235 235 235 238 241 245 251 258 265 268 266 269 277 281 280 276 271 272 273 269 270 280 293 305 298 283 285 292 295 300 305 306
256 257 260 258 249 241 235 235 240 246 248 247 246 246 241 239 241 246 253 259 262 268 275 282 287 283 273 268 268 268 273 283 293 301 291 277 283 290 289 289 293 299
260 257 257 264 266 258 246 245 249 253 255 256 256 256 255 254 252 249 249 250 253 260 267 275 283 285 281 273 268 272 281 285 290 294 283 274 281 286 284 283 280 279
262 260 256 260 266 266 258 254 253 251 248 248 251 251 253 256 257 256 254 253 253 253 254 257 265 272 274 270 269 275 281 280 283 286 280 276 279 280 284 286 281 274
248 255 255 252 256 260 257 253 251 249 244 242 245 247 246 248 251 254 255 255 254 252 248 249 255 260 264 266 269 272 272 270 275 281 280 276 273 273 280 287 287 281
244 245 245 243 244 250 254 253 251 250 246 242 240 240 240 242 246 248 249 251 254 253 251 252 253 254 259 264 265 263 261 263 269 274 274 271 271 273 276 284 292 289
246 242 244 248 250 257 267 270 265 262 260 254 246 243 242 242 243 245 247 252 254 251 250 253 252 252 255 258 257 254 255 259 262 264 267 268 271 276 276 278 288 292
266 266 267 268 270 275 283 287 284 278 273 267 259 255 254 254 255 255 253 254 254 252 251 250 248 247 248 250 252 252 253 255 255 256 262 266 270 277 281 280 281 286
267 265 258 249 244 251 261 268 272 273 273 270 265 262 262 263 264 261 255 252 253 255 255 251 244 241 244 247 249 249 250 250 250 251 254 260 269 277 280 283 286 289
Height
808 808 809 809 809 810 810 810 810 811 811 811 811 810 809 809 809 810 809 808 809 809 809 809 808 808 808 808 807 807 807 806 805 805 804 804 804 803 803 803 802 802
807 807 808 809 809 809 809 809 810 810 810 810 810 810 809 808 808 809 808 808 808 808 808 808 808 808 808 807 807 807 807 806 806 805 805 804 804 803 803 803 802 802
806 806 807 807 808 808 808 809 809 809 810 810 810 809 809 808 808 809 808 807 807 808 808 808 808 808 808 807 807 806 806 806 806 805 805 804 804 803 803 802 802 802
805 806 806 806 807 807 807 808 808 808 809 809 809 809 808 808 808 808 807 806 806 807 807 807 807 807 806 806 806 806 806 806 805 805 805 804 804 803 803 802 802 801
804 805 805 805 806 806 807 807 807 808 808 808 808 808 808 808 807 806 806 805 806 806 805 805 805 805 805 805 805 805 805 805 805 805 804 804 803 803 802 802 802 801
803 803 804 804 805 805 805 806 806 807 807 807 807 807 807 807 806 805 805 805 805 806 805 805 804 804 803 804 804 804 804 804 804 804 803 803 803 802 802 802 801 801
802 802 803 803 803 804 804 804 805 805 806 807 806 807 807 806 805 805 805 804 805 806 805 805 804 804 803 803 803 803 803 803 802 802 802 802 802 802 801 801 800 800
802 802 802 802 802 803 803 803 804 804 805 805 805 806 806 805 805 805 804 804 804 805 805 804 804 804 803 803 803 803 802 801 801 801 801 801 801 801 800 800 799 799
801 801 801 801 801 802 802 802 802 803 803 804 804 805 805 805 805 804 803 803 803 804 804 803 802 802 803 802 802 802 801 801 801 800 800 800 800 800 799 799 798 798
799 799 800 800 800 800 801 801 801 801 802 802 803 803 803 804 804 803 803 803 803 803 802 801 801 801 801 801 801 801 801 800 800 799 799 798 798 798 798 798 797 797
798 798 798 799 799 799 799 799 800 800 801 801 802 802 802 802 803 802 802 802 802 801 801 800 799 799 799 800 799 800 800 800 799 799 798 798 797 797 797 797 796 796
797 797 797 797 798 798 798 798 799 799 800 800 801 801 801 801 802 802 801 801 800 800 800 799 799 798 798 798 798 798 799 799 799 798 797 797 796 796 795 795 795 795
796 796 797 797 797 797 797 797 798 798 798 799 800 800 800 800 801 801 800 800 799 799 799 798 798 797 797 797 797 796 796 797 797 797 797 796 795 795 794 794 794 793
795 796 796 796 797 797 797 797 797 798 798 798 799 799 799 799 800 800 799 798 798 797 797 797 797 797 797 797 796 795 795 795 795 795 795 795 794 794 793 793 792 792
794 795 795 796 796 796 797 797 797 797 797 798 798 798 799 799 799 799 798 797 797 796 796 795 796 796 796 796 795 794 794 794 794 794 794 794 793 792 792 792 791 790
792 793 793 794 795 795 796 796 796 796 797 797 797 798 798 798 798 798 798 797 796 795 795 794 794 794 794 794 794 794 793 793 793 792 792 792 792 791 791 790 790 789
791 791 792 792 793 793 794 794 794 794 795 795 796 796 796 796 797 797 796 796 796 795 795 794 794 793 793 793 793 792 792 792 792 791 791 791 791 790 790 789 788 788
789 789 789 790 790 791 791 791 792 792 792 793 793 793 794 794 794 795 795 795 795 794 794 793 793 792 791 791 791 791 791 791 791 790 790 790 790 789 789 788 787 787
788 788 788 788 788 788 789 789 789 790 790 790 791 791 791 791 792 792 792 793 793 793 793 792 791 791 790 790 790 790 790 790 789 789 788 789 789 788 787 787 786 785
787 786 786 787 786 786 787 787 787 788 788 789 789 789 789 790 790 790 790 790 790 791 791 790 790 790 789 789 789 789 789 788 788 788 787 787 787 786 786 785 784 784
785 785 785 785 785 785 785 785 785 785 786 786 786 786 787 787 787 787 787 788 788 788 788 788 788 788 788 788 788 788 787 787 787 786 786 785 785 785 784 782 782 782
783 783 783 782 782 782 782 782 782 782 783 783 783 784 784 784 784 785 785 785 785 785 785 785 785 785 785 786 786 786 786 786 785 785 784 784 783 783 782 781 780 780
779 780 779 779 779 779 779 779 779 779 780 780 780 781 781 781 781 781 782 782 782 782 782 782 782 782 783 783 783 784 784 784 784 783 783 782 781 781 780 779 779 778
776 776 776 776 777 777 777 777 777 778 778 778 778 778 778 779 778 779 779 780 780 780 779 779 779 779 779 780 780 781 781 781 782 782 782 781 780 779 779 778 777 776
774 774 774 774 774 775 776 776 776 776 776 776 776 776 776 776 776 776 776 776 776 776 776 775 776 776 776 777 777 778 779 779 780 780 780 779 778 777 777 776 776 775
771 771 771 771 772 772 773 774 774 774 774 773 773 773 773 773 773 773 773 772 773 773 773 773 773 773 773 774 774 775 776 776 777 777 777 777 776 776 775 774 774 773